TimeCDT,TemperatureF,Dew PointF,Humidity,Sea Level PressureIn,VisibilityMPH,Wind Direction,Wind SpeedMPH,Gust SpeedMPH,PrecipitationIn,Events,Conditions,WindDirDegrees,DateUTC
12:09 AM,26.6,23.0,86,29.80,1.5,NE,6.9,-,0.00,Snow,Light Snow,50,2013-04-12 05:09:00
12:40 AM,24.8,21.2,86,29.80,2.0,NE,9.2,-,0.01,Snow,Light Snow,40,2013-04-12 05:40:00
12:53 AM,25.0,21.9,88,29.86,2.0,NE,6.9,-,0.02,Snow,Light Snow,40,2013-04-12 05:53:00
1:01 AM,24.8,21.2,86,29.80,2.0,NE,6.9,-,0.00,Snow,Light Snow,40,2013-04-12 06:01:00
1:29 AM,24.8,21.2,86,29.79,3.0,NE,5.8,-,0.00,Snow,Light Snow,40,2013-04-12 06:29:00
1:39 AM,24.8,21.2,86,29.79,2.5,NNE,4.6,-,0.00,Snow,Light Snow,30,2013-04-12 06:39:00
1:51 AM,24.8,21.2,86,29.79,3.0,NNE,6.9,-,0.00,Snow,Light Snow,30,2013-04-12 06:51:00
1:53 AM,25.0,21.9,88,29.86,2.5,NE,8.1,-,0.00,Snow,Light Snow,40,2013-04-12 06:53:00
2:23 AM,24.8,21.2,86,29.78,3.0,NNE,8.1,-,0.00,Snow,Light Snow,20,2013-04-12 07:23:00
2:53 AM,25.0,21.9,88,29.84,5.0,NNE,9.2,-,0.00,Snow,Light Snow,30,2013-04-12 07:53:00
3:53 AM,25.0,21.9,88,29.82,7.0,NE,9.2,17.3,0.01,,Overcast,40,2013-04-12 08:53:00
4:53 AM,25.0,21.9,88,29.82,3.0,NE,10.4,17.3,0.00,Snow,Light Snow,40,2013-04-12 09:53:00
5:23 AM,24.8,21.2,86,29.76,1.8,NE,9.2,-,0.00,Snow,Light Snow,40,2013-04-12 10:23:00
5:30 AM,24.8,21.2,86,29.76,1.2,NE,11.5,17.3,0.00,Snow,Light Snow,40,2013-04-12 10:30:00
5:53 AM,25.0,21.9,88,29.82,1.2,NE,11.5,-,0.00,Snow,Light Snow,40,2013-04-12 10:53:00
6:17 AM,24.8,21.2,86,29.76,2.5,NE,10.4,18.4,0.00,Snow,Light Snow,40,2013-04-12 11:17:00
6:23 AM,24.8,21.2,86,29.76,3.0,NNE,8.1,18.4,0.00,Snow,Light Snow,30,2013-04-12 11:23:00
6:53 AM,26.1,21.0,81,29.83,5.0,NNE,6.9,17.3,0.00,,Haze,30,2013-04-12 11:53:00
7:05 AM,26.6,21.2,80,29.76,4.0,NE,9.2,17.3,N/A,,Haze,40,2013-04-12 12:05:00
7:12 AM,26.6,21.2,80,29.77,2.5,NE,8.1,16.1,0.00,Snow,Light Snow,40,2013-04-12 12:12:00
7:20 AM,26.6,21.2,80,29.77,1.8,NE,10.4,18.4,0.00,Snow,Light Snow,40,2013-04-12 12:20:00
7:29 AM,26.6,21.2,80,29.77,3.0,NNE,4.6,16.1,0.00,Snow,Light Snow,30,2013-04-12 12:29:00
7:53 AM,26.1,21.0,81,29.83,5.0,NE,10.4,-,0.00,Snow,Light Snow,40,2013-04-12 12:53:00
8:53 AM,27.0,21.0,78,29.84,3.0,NE,9.2,-,0.00,Snow,Light Snow,40,2013-04-12 13:53:00
9:53 AM,27.0,21.0,78,29.84,7.0,NE,9.2,17.3,0.00,Snow,Light Snow,40,2013-04-12 14:53:00
10:53 AM,28.9,21.0,72,29.85,9.0,NE,9.2,-,0.00,,Overcast,40,2013-04-12 15:53:00
11:53 AM,30.0,21.0,69,29.85,7.0,NE,10.4,-,0.00,Snow,Light Snow,40,2013-04-12 16:53:00
12:53 PM,30.9,19.9,64,29.85,7.0,NE,10.4,-,0.00,Snow,Light Snow,50,2013-04-12 17:53:00
1:53 PM,32.0,21.9,66,29.84,9.0,NE,8.1,-,0.00,,Overcast,50,2013-04-12 18:53:00
2:01 PM,32.0,21.2,64,29.78,5.0,NNE,4.6,-,0.00,Snow,Light Snow,20,2013-04-12 19:01:00
2:09 PM,32.0,19.4,60,29.78,8.0,NE,5.8,-,0.00,Snow,Light Snow,40,2013-04-12 19:09:00
2:53 PM,32.0,21.9,66,29.85,5.0,NNE,5.8,-,0.00,Snow,Light Snow,20,2013-04-12 19:53:00
3:53 PM,32.0,21.9,66,29.85,6.0,NNE,3.5,-,0.00,Snow,Light Snow,30,2013-04-12 20:53:00
4:25 PM,30.2,23.0,75,29.78,2.0,North,6.9,-,0.00,Snow,Light Snow,350,2013-04-12 21:25:00
4:32 PM,30.2,23.0,75,29.78,1.8,North,5.8,-,0.00,Snow,Light Snow,360,2013-04-12 21:32:00
4:40 PM,32.0,24.8,75,29.78,2.5,North,9.2,-,0.00,Snow,Light Snow,360,2013-04-12 21:40:00
4:53 PM,30.9,24.1,76,29.85,2.5,North,9.2,-,0.00,Snow,Light Snow,360,2013-04-12 21:53:00
5:01 PM,30.2,23.0,75,29.79,4.0,North,6.9,-,0.00,Snow,Light Snow,360,2013-04-12 22:01:00
5:16 PM,30.2,24.8,80,29.79,1.8,North,9.2,-,0.00,Snow,Light Snow,350,2013-04-12 22:16:00
5:44 PM,30.2,24.8,80,29.80,2.0,North,6.9,-,0.01,Snow,Light Snow,360,2013-04-12 22:44:00
5:53 PM,30.0,25.0,82,29.86,2.5,North,8.1,-,0.01,Snow,Light Snow,350,2013-04-12 22:53:00
6:08 PM,30.2,24.8,80,29.80,2.0,North,9.2,-,0.00,Snow,Light Snow,350,2013-04-12 23:08:00
6:13 PM,30.2,24.8,80,29.80,1.8,North,5.8,-,0.00,Snow,Light Snow,360,2013-04-12 23:13:00
6:41 PM,28.4,24.8,86,29.81,0.5,North,5.8,-,0.01,Fog-Snow,Snow,360,2013-04-12 23:41:00
6:51 PM,28.4,24.8,86,29.81,2.0,North,4.6,-,0.01,Snow,Light Snow,10,2013-04-12 23:51:00
6:53 PM,30.0,26.1,85,29.87,2.5,North,6.9,-,0.01,Snow,Light Snow,360,2013-04-12 23:53:00
7:02 PM,28.4,24.8,86,29.81,3.0,North,8.1,-,0.00,Snow,Light Snow,350,2013-04-13 00:02:00
7:53 PM,28.9,24.1,82,29.87,2.0,North,9.2,-,0.00,Snow,Light Snow,10,2013-04-13 00:53:00
8:00 PM,28.4,24.8,86,29.80,1.0,NNE,9.2,-,0.00,Snow,Light Snow,20,2013-04-13 01:00:00
8:08 PM,28.4,24.8,86,29.80,1.0,North,8.1,-,0.00,Snow,Light Snow,360,2013-04-13 01:08:00
8:20 PM,28.4,24.8,86,29.81,2.0,North,8.1,-,0.00,Snow,Light Snow,360,2013-04-13 01:20:00
8:43 PM,28.4,24.8,86,29.81,3.0,North,6.9,-,0.00,Snow,Light Snow,350,2013-04-13 01:43:00
8:53 PM,28.0,25.0,88,29.88,2.0,North,6.9,-,0.00,Snow,Light Snow,350,2013-04-13 01:53:00
9:01 PM,28.4,24.8,86,29.82,1.8,North,5.8,-,0.00,Snow,Light Snow,350,2013-04-13 02:01:00
9:08 PM,28.4,24.8,86,29.82,2.5,North,5.8,-,0.00,Snow,Light Snow,350,2013-04-13 02:08:00
9:16 PM,26.6,24.8,93,29.82,5.0,North,6.9,-,0.00,Snow,Light Snow,350,2013-04-13 02:16:00
9:53 PM,27.0,24.1,89,29.89,3.0,North,5.8,-,0.00,Snow,Light Snow,350,2013-04-13 02:53:00
10:36 PM,26.6,24.8,93,29.83,6.0,North,4.6,-,0.01,Snow,Light Snow,360,2013-04-13 03:36:00
10:53 PM,27.0,24.1,89,29.89,4.0,North,4.6,-,0.01,Snow,Light Snow,350,2013-04-13 03:53:00
11:14 PM,26.6,23.0,86,29.83,5.0,North,6.9,-,0.00,Snow,Light Snow,360,2013-04-13 04:14:00
11:53 PM,26.1,23.0,88,29.89,8.0,NNW,3.5,-,0.00,Snow,Light Snow,340,2013-04-13 04:53:00